Station Historical Data
Daily Summary for April 5, 2017 Units:  English    Metric   Both
« Previous Day
Next Day »
Daily Weekly Monthly Yearly Custom
  High: Low: Average:
Temperature: 68.8 °F 51.3 °F 57.7 °F
Dew Point: 46.4 °F 37.6 °F 42.6 °F
Humidity: 70 % 33 % 58 %
Wind Speed: 17.0 mph 0.0 mph 2.4 mph
Wind Gust: 21.0 mph - -
Wind:- - SSE
Pressure: 30.09 in 29.97 in -
Precipitation: 0.00 in    
Historical Graphs
 
 
Tabular Data for April 5, 2017
Time Temperature Dew Point Pressure Wind Wind Speed Wind Gust Humidity Rainfall Rate (Hourly) solar
00:08 54.6 °F 42.7 °F 30.09 in Calm   2.0 mph 64 % 0.00 in 0.00 W/m2
00:13 54.6 °F 42.7 °F 30.09 in Calm     64 % 0.00 in 0.00 W/m2
00:18 54.5 °F 42.6 °F 30.09 in Calm   1.0 mph 64 % 0.00 in 0.00 W/m2
00:23 54.4 °F 42.1 °F 30.09 in ESE 2.0 mph 2.0 mph 63 % 0.00 in 0.00 W/m2
00:28 54.4 °F 42.5 °F 30.09 in Calm   2.0 mph 64 % 0.00 in 0.00 W/m2
00:33 54.3 °F 42.4 °F 30.09 in Calm   5.0 mph 64 % 0.00 in 0.00 W/m2
00:38 54.2 °F 42.7 °F 30.09 in ESE 4.0 mph 5.0 mph 65 % 0.00 in 0.00 W/m2
00:43 54.1 °F 42.6 °F 30.09 in Calm   4.0 mph 65 % 0.00 in 0.00 W/m2
00:49 54.0 °F 42.5 °F 30.08 in Calm   6.0 mph 65 % 0.00 in 0.00 W/m2
00:54 53.9 °F 42.8 °F 30.09 in ESE 2.0 mph 5.0 mph 66 % 0.00 in 0.00 W/m2
00:59 53.8 °F 42.7 °F 30.09 in Calm   6.0 mph 66 % 0.00 in 0.00 W/m2
01:04 53.7 °F 42.6 °F 30.09 in ESE 1.0 mph 4.0 mph 66 % 0.00 in 0.00 W/m2
01:09 53.6 °F 42.9 °F 30.09 in Calm   5.0 mph 67 % 0.00 in 0.00 W/m2
01:14 53.5 °F 42.8 °F 30.09 in ESE 2.0 mph 5.0 mph 67 % 0.00 in 0.00 W/m2
01:19 53.4 °F 42.7 °F 30.09 in ESE 7.0 mph 7.0 mph 67 % 0.00 in 0.00 W/m2
01:24 53.3 °F 43.0 °F 30.09 in ESE 4.0 mph 7.0 mph 68 % 0.00 in 0.00 W/m2
01:29 53.2 °F 42.9 °F 30.09 in Calm   5.0 mph 68 % 0.00 in 0.00 W/m2
01:34 53.1 °F 42.8 °F 30.09 in Calm   8.0 mph 68 % 0.00 in 0.00 W/m2
01:39 53.1 °F 42.8 °F 30.09 in ESE 1.0 mph 8.0 mph 68 % 0.00 in 0.00 W/m2
01:44 53.0 °F 43.1 °F 30.09 in ESE 6.0 mph 11.0 mph 69 % 0.00 in 0.00 W/m2
01:49 52.9 °F 43.0 °F 30.08 in ESE 6.0 mph 11.0 mph 69 % 0.00 in 0.00 W/m2
01:54 52.8 °F 42.9 °F 30.08 in ESE 4.0 mph 9.0 mph 69 % 0.00 in 0.00 W/m2
01:59 52.8 °F 42.9 °F 30.08 in Calm   14.0 mph 69 % 0.00 in 0.00 W/m2
02:04 52.8 °F 42.5 °F 30.08 in Calm   9.0 mph 68 % 0.00 in 0.00 W/m2
02:09 52.7 °F 42.5 °F 30.08 in ESE 5.0 mph 9.0 mph 68 % 0.00 in 0.00 W/m2
02:14 52.7 °F 42.5 °F 30.08 in ESE 2.0 mph 11.0 mph 68 % 0.00 in 0.00 W/m2
02:19 52.7 °F 42.5 °F 30.08 in ESE 2.0 mph 13.0 mph 68 % 0.00 in 0.00 W/m2
02:24 52.7 °F 42.1 °F 30.08 in ESE 6.0 mph 11.0 mph 67 % 0.00 in 0.00 W/m2
02:29 52.7 °F 42.1 °F 30.08 in ESE 1.0 mph 8.0 mph 67 % 0.00 in 0.00 W/m2
02:34 52.7 °F 42.5 °F 30.08 in ESE 2.0 mph 7.0 mph 68 % 0.00 in 0.00 W/m2
02:39 52.7 °F 42.5 °F 30.08 in ESE 1.0 mph 16.0 mph 68 % 0.00 in 0.00 W/m2
02:44 52.7 °F 42.5 °F 30.07 in ESE 1.0 mph 9.0 mph 68 % 0.00 in 0.00 W/m2
02:49 52.7 °F 42.5 °F 30.08 in Calm   13.0 mph 68 % 0.00 in 0.00 W/m2
02:54 52.7 °F 42.1 °F 30.08 in SE 1.0 mph 5.0 mph 67 % 0.00 in 0.00 W/m2
02:59 52.7 °F 41.7 °F 30.08 in Calm   7.0 mph 66 % 0.00 in 0.00 W/m2
03:04 52.7 °F 41.7 °F 30.08 in Calm   5.0 mph 66 % 0.00 in 0.00 W/m2
03:09 52.6 °F 41.6 °F 30.08 in Calm   6.0 mph 66 % 0.00 in 0.00 W/m2
03:14 52.6 °F 42.3 °F 30.08 in ESE 1.0 mph 7.0 mph 68 % 0.00 in 0.00 W/m2
03:19 52.5 °F 41.9 °F 30.07 in Calm   8.0 mph 67 % 0.00 in 0.00 W/m2
03:24 52.4 °F 41.8 °F 30.07 in Calm   9.0 mph 67 % 0.00 in 0.00 W/m2
03:29 52.3 °F 42.1 °F 30.07 in ESE 1.0 mph 7.0 mph 68 % 0.00 in 0.00 W/m2
03:34 52.2 °F 42.0 °F 30.07 in ESE 1.0 mph 8.0 mph 68 % 0.00 in 0.00 W/m2
03:39 52.1 °F 41.9 °F 30.07 in ESE 5.0 mph 14.0 mph 68 % 0.00 in 0.00 W/m2
03:44 52.0 °F 41.4 °F 30.07 in ESE 1.0 mph 9.0 mph 67 % 0.00 in 0.00 W/m2
03:49 52.0 °F 41.8 °F 30.07 in Calm   7.0 mph 68 % 0.00 in 0.00 W/m2
03:55 51.9 °F 41.3 °F 30.07 in Calm   6.0 mph 67 % 0.00 in 0.00 W/m2
04:00 51.9 °F 41.7 °F 30.07 in ESE 5.0 mph 5.0 mph 68 % 0.00 in 0.00 W/m2
04:05 51.9 °F 41.7 °F 30.07 in Calm   6.0 mph 68 % 0.00 in 0.00 W/m2
04:10 51.8 °F 41.6 °F 30.07 in Calm   7.0 mph 68 % 0.00 in 0.00 W/m2
04:15 51.7 °F 41.5 °F 30.07 in Calm   4.0 mph 68 % 0.00 in 0.00 W/m2
04:20 51.7 °F 41.5 °F 30.07 in ESE 5.0 mph 8.0 mph 68 % 0.00 in 0.00 W/m2
04:25 51.6 °F 41.4 °F 30.06 in Calm   6.0 mph 68 % 0.00 in 0.00 W/m2
04:30 51.5 °F 41.7 °F 30.06 in ESE 2.0 mph 11.0 mph 69 % 0.00 in 0.00 W/m2
04:35 51.5 °F 41.7 °F 30.06 in SE 7.0 mph 12.0 mph 69 % 0.00 in 0.00 W/m2
04:40 51.4 °F 41.2 °F 30.06 in East 1.0 mph 11.0 mph 68 % 0.00 in 0.00 W/m2
04:45 51.3 °F 41.9 °F 30.06 in ESE 6.0 mph 14.0 mph 70 % 0.00 in 0.00 W/m2
04:50 51.3 °F 41.5 °F 30.06 in ESE 1.0 mph 8.0 mph 69 % 0.00 in 0.00 W/m2
04:55 51.3 °F 41.5 °F 30.05 in ENE 8.0 mph 12.0 mph 69 % 0.00 in 0.00 W/m2
05:00 51.3 °F 41.5 °F 30.05 in ESE 7.0 mph 11.0 mph 69 % 0.00 in 0.00 W/m2
05:05 51.3 °F 41.1 °F 30.05 in ENE 1.0 mph 16.0 mph 68 % 0.00 in 0.00 W/m2
05:10 51.4 °F 41.6 °F 30.05 in ESE 2.0 mph 18.0 mph 69 % 0.00 in 0.00 W/m2
05:15 51.5 °F 41.3 °F 30.05 in SE 1.0 mph 19.0 mph 68 % 0.00 in 0.00 W/m2
05:20 51.6 °F 41.0 °F 30.05 in East 9.0 mph 20.0 mph 67 % 0.00 in 0.00 W/m2
05:25 51.7 °F 41.1 °F 30.05 in SE 6.0 mph 21.0 mph 67 % 0.00 in 0.00 W/m2
05:30 51.8 °F 41.6 °F 30.06 in ESE 7.0 mph 15.0 mph 68 % 0.00 in 0.00 W/m2
05:35 51.8 °F 41.2 °F 30.05 in ESE 7.0 mph 15.0 mph 67 % 0.00 in 0.00 W/m2
05:40 51.8 °F 41.6 °F 30.05 in ESE 7.0 mph 15.0 mph 68 % 0.00 in 0.00 W/m2
05:45 51.8 °F 41.2 °F 30.05 in East 7.0 mph 15.0 mph 67 % 0.00 in 0.00 W/m2
05:50 51.8 °F 41.2 °F 30.05 in SE 8.0 mph 16.0 mph 67 % 0.00 in 0.00 W/m2
05:55 51.8 °F 41.2 °F 30.05 in Calm   15.0 mph 67 % 0.00 in 0.00 W/m2
06:00 51.8 °F 41.2 °F 30.05 in ESE 1.0 mph 14.0 mph 67 % 0.00 in 0.00 W/m2
06:05 51.9 °F 41.3 °F 30.06 in ESE 2.0 mph 14.0 mph 67 % 0.00 in 0.00 W/m2
06:11 51.9 °F 40.9 °F 30.06 in ESE 1.0 mph 15.0 mph 66 % 0.00 in 0.00 W/m2
06:16 51.9 °F 41.3 °F 30.06 in ESE 1.0 mph 14.0 mph 67 % 0.00 in 0.00 W/m2
06:21 51.9 °F 40.9 °F 30.06 in Calm   14.0 mph 66 % 0.00 in 0.00 W/m2
06:26 51.9 °F 41.3 °F 30.05 in East 11.0 mph 15.0 mph 67 % 0.00 in 0.00 W/m2
06:31 51.9 °F 41.3 °F 30.06 in ESE 1.0 mph 9.0 mph 67 % 0.00 in 0.00 W/m2
06:36 51.9 °F 41.3 °F 30.05 in Calm   13.0 mph 67 % 0.00 in 0.00 W/m2
06:41 51.8 °F 41.2 °F 30.05 in ESE 4.0 mph 15.0 mph 67 % 0.00 in 0.00 W/m2
06:46 51.8 °F 40.8 °F 30.05 in East 15.0 mph 15.0 mph 66 % 0.00 in 7.00 W/m2
06:51 51.8 °F 40.8 °F 30.05 in Calm   13.0 mph 66 % 0.00 in 12.00 W/m2
06:56 51.8 °F 40.8 °F 30.05 in SE 7.0 mph 14.0 mph 66 % 0.00 in 16.00 W/m2
07:01 51.8 °F 41.2 °F 30.05 in Calm   13.0 mph 67 % 0.00 in 18.00 W/m2
07:06 51.8 °F 40.8 °F 30.05 in ESE 9.0 mph 12.0 mph 66 % 0.00 in 21.00 W/m2
07:11 51.9 °F 41.3 °F 30.06 in Calm   9.0 mph 67 % 0.00 in 28.00 W/m2
07:16 51.8 °F 41.2 °F 30.06 in ESE 2.0 mph 12.0 mph 67 % 0.00 in 35.00 W/m2
07:21 51.8 °F 41.2 °F 30.06 in ESE 1.0 mph 12.0 mph 67 % 0.00 in 42.00 W/m2
07:26 51.9 °F 40.9 °F 30.06 in Calm   8.0 mph 66 % 0.00 in 46.00 W/m2
07:31 51.9 °F 40.9 °F 30.06 in ESE 1.0 mph 13.0 mph 66 % 0.00 in 49.00 W/m2
07:36 51.9 °F 41.3 °F 30.06 in ESE 1.0 mph 6.0 mph 67 % 0.00 in 58.00 W/m2
07:41 52.0 °F 41.4 °F 30.06 in Calm   5.0 mph 67 % 0.00 in 67.00 W/m2
07:46 52.1 °F 41.5 °F 30.06 in Calm   7.0 mph 67 % 0.00 in 74.00 W/m2
07:51 52.1 °F 41.9 °F 30.06 in Calm   11.0 mph 68 % 0.00 in 81.00 W/m2
07:56 52.1 °F 41.9 °F 30.06 in ESE 1.0 mph 14.0 mph 68 % 0.00 in 98.00 W/m2
08:01 52.2 °F 41.6 °F 30.06 in Calm   11.0 mph 67 % 0.00 in 120.00 W/m2
08:06 52.3 °F 42.1 °F 30.06 in SE 8.0 mph 13.0 mph 68 % 0.00 in 156.00 W/m2
08:07 52.3 °F 42.1 °F 30.06 in ESE 1.0 mph 12.0 mph 68 % 0.00 in 158.00 W/m2
08:12 52.3 °F 42.1 °F 30.06 in SE 1.0 mph 13.0 mph 68 % 0.00 in 199.00 W/m2
08:17 52.5 °F 41.5 °F 30.06 in SE 11.0 mph 11.0 mph 66 % 0.00 in 211.00 W/m2
08:22 52.6 °F 41.6 °F 30.06 in Calm   9.0 mph 66 % 0.00 in 223.00 W/m2
08:27 52.8 °F 41.4 °F 30.06 in ESE 2.0 mph 14.0 mph 65 % 0.00 in 239.00 W/m2
08:32 52.9 °F 41.9 °F 30.06 in Calm   9.0 mph 66 % 0.00 in 225.00 W/m2
08:37 53.1 °F 40.8 °F 30.06 in SE 4.0 mph 6.0 mph 63 % 0.00 in 281.00 W/m2
08:42 53.3 °F 41.0 °F 30.06 in SE 2.0 mph 2.0 mph 63 % 0.00 in 232.00 W/m2
08:47 53.5 °F 41.2 °F 30.06 in SE 1.0 mph 5.0 mph 63 % 0.00 in 237.00 W/m2
08:52 53.7 °F 41.8 °F 30.07 in SE 2.0 mph 2.0 mph 64 % 0.00 in 265.00 W/m2
08:57 54.0 °F 42.5 °F 30.07 in ESE 2.0 mph 7.0 mph 65 % 0.00 in 271.00 W/m2
09:02 54.2 °F 42.7 °F 30.07 in Calm   5.0 mph 65 % 0.00 in 279.00 W/m2
09:07 54.4 °F 42.5 °F 30.07 in Calm   4.0 mph 64 % 0.00 in 302.00 W/m2
09:12 54.6 °F 42.7 °F 30.07 in Calm   2.0 mph 64 % 0.00 in 325.00 W/m2
09:17 54.8 °F 43.3 °F 30.07 in Calm   1.0 mph 65 % 0.00 in 376.00 W/m2
09:22 54.9 °F 43.8 °F 30.07 in Calm     66 % 0.00 in 380.00 W/m2
09:27 55.1 °F 44.0 °F 30.07 in SE 4.0 mph 4.0 mph 66 % 0.00 in 519.00 W/m2
09:32 55.4 °F 44.2 °F 30.07 in SSE 1.0 mph 1.0 mph 66 % 0.00 in 531.00 W/m2
09:37 55.7 °F 44.5 °F 30.07 in SW 2.0 mph 8.0 mph 66 % 0.00 in 408.00 W/m2
09:42 56.0 °F 43.6 °F 30.07 in SSE 8.0 mph 8.0 mph 63 % 0.00 in 367.00 W/m2
09:47 56.3 °F 44.3 °F 30.07 in South 7.0 mph 9.0 mph 64 % 0.00 in 573.00 W/m2
09:52 56.5 °F 41.9 °F 30.08 in Calm   5.0 mph 58 % 0.00 in 601.00 W/m2
09:57 56.8 °F 42.2 °F 30.08 in Calm   6.0 mph 58 % 0.00 in 601.00 W/m2
10:02 57.2 °F 42.1 °F 30.08 in SW 1.0 mph 11.0 mph 57 % 0.00 in 571.00 W/m2
10:07 57.6 °F 42.5 °F 30.08 in South 7.0 mph 10.0 mph 57 % 0.00 in 619.00 W/m2
10:12 57.9 °F 42.8 °F 30.08 in SSW 5.0 mph 8.0 mph 57 % 0.00 in 621.00 W/m2
10:17 58.3 °F 42.2 °F 30.08 in SSW 8.0 mph 11.0 mph 55 % 0.00 in 552.00 W/m2
10:22 58.7 °F 42.6 °F 30.08 in Calm   8.0 mph 55 % 0.00 in 603.00 W/m2
10:27 58.9 °F 42.3 °F 30.08 in South 5.0 mph 15.0 mph 54 % 0.00 in 612.00 W/m2
10:32 59.3 °F 43.2 °F 30.08 in Calm   7.0 mph 55 % 0.00 in 608.00 W/m2
10:37 59.5 °F 44.3 °F 30.08 in South 2.0 mph 7.0 mph 57 % 0.00 in 615.00 W/m2
10:42 59.7 °F 43.5 °F 30.08 in South 1.0 mph 9.0 mph 55 % 0.00 in 677.00 W/m2
10:48 59.9 °F 43.2 °F 30.09 in WSW 2.0 mph 13.0 mph 54 % 0.00 in 703.00 W/m2
10:53 60.1 °F 42.4 °F 30.09 in SSW 2.0 mph 9.0 mph 52 % 0.00 in 733.00 W/m2
10:58 60.3 °F 41.6 °F 30.08 in Calm   9.0 mph 50 % 0.00 in 696.00 W/m2
11:03 60.4 °F 42.7 °F 30.08 in Calm   8.0 mph 52 % 0.00 in 686.00 W/m2
11:08 60.7 °F 42.5 °F 30.08 in South 9.0 mph 10.0 mph 51 % 0.00 in 679.00 W/m2
11:13 60.9 °F 42.2 °F 30.08 in Calm   13.0 mph 50 % 0.00 in 749.00 W/m2
11:18 61.2 °F 41.9 °F 30.08 in South 10.0 mph 10.0 mph 49 % 0.00 in 737.00 W/m2
11:23 61.4 °F 41.6 °F 30.08 in Calm   11.0 mph 48 % 0.00 in 694.00 W/m2
11:28 61.6 °F 41.7 °F 30.08 in SSW 1.0 mph 10.0 mph 48 % 0.00 in 701.00 W/m2
11:33 61.9 °F 42.5 °F 30.08 in Calm   6.0 mph 49 % 0.00 in 784.00 W/m2
11:38 62.1 °F 42.2 °F 30.08 in South 1.0 mph 10.0 mph 48 % 0.00 in 828.00 W/m2
11:43 62.3 °F 41.8 °F 30.08 in South 6.0 mph 7.0 mph 47 % 0.00 in 865.00 W/m2
11:48 62.6 °F 41.0 °F 30.07 in South 8.0 mph 8.0 mph 45 % 0.00 in 828.00 W/m2
11:53 63.0 °F 41.3 °F 30.07 in South 2.0 mph 3.0 mph 45 % 0.00 in 842.00 W/m2
11:58 63.4 °F 41.1 °F 30.07 in SSW 8.0 mph 12.0 mph 44 % 0.00 in 860.00 W/m2
12:03 63.8 °F 42.1 °F 30.06 in South 9.0 mph 15.0 mph 45 % 0.00 in 828.00 W/m2
12:08 64.3 °F 40.7 °F 30.06 in Calm   15.0 mph 42 % 0.00 in 860.00 W/m2
12:13 64.9 °F 40.7 °F 30.06 in Calm   10.0 mph 41 % 0.00 in 868.00 W/m2
12:18 65.4 °F 41.7 °F 30.06 in SSE 9.0 mph 13.0 mph 42 % 0.00 in 831.00 W/m2
12:23 65.8 °F 42.1 °F 30.05 in SSE 10.0 mph 14.0 mph 42 % 0.00 in 837.00 W/m2
12:28 66.3 °F 43.2 °F 30.05 in SSW 1.0 mph 11.0 mph 43 % 0.00 in 824.00 W/m2
12:33 66.7 °F 42.3 °F 30.06 in SSW 9.0 mph 9.0 mph 41 % 0.00 in 761.00 W/m2
12:38 67.1 °F 42.6 °F 30.06 in Calm   10.0 mph 41 % 0.00 in 710.00 W/m2
12:43 67.4 °F 42.3 °F 30.05 in South 10.0 mph 13.0 mph 40 % 0.00 in 796.00 W/m2
12:48 67.6 °F 41.1 °F 30.05 in South 12.0 mph 15.0 mph 38 % 0.00 in 817.00 W/m2
12:53 67.7 °F 41.2 °F 30.05 in SW 5.0 mph 14.0 mph 38 % 0.00 in 840.00 W/m2
12:54 67.7 °F 41.2 °F 30.05 in Calm   14.0 mph 38 % 0.00 in 821.00 W/m2
12:59 67.7 °F 37.6 °F 30.05 in Calm   14.0 mph 33 % 0.00 in 766.00 W/m2
13:04 67.9 °F 39.3 °F 30.05 in SSE 10.0 mph 12.0 mph 35 % 0.00 in 772.00 W/m2
13:09 68.2 °F 38.8 °F 30.05 in SW 1.0 mph 16.0 mph 34 % 0.00 in 765.00 W/m2
13:14 68.3 °F 39.6 °F 30.05 in SSE 1.0 mph 11.0 mph 35 % 0.00 in 754.00 W/m2
13:19 68.5 °F 39.8 °F 30.04 in SSW 6.0 mph 11.0 mph 35 % 0.00 in 726.00 W/m2
13:24 68.8 °F 40.1 °F 30.04 in Calm   8.0 mph 35 % 0.00 in 654.00 W/m2
13:29 68.7 °F 40.7 °F 30.04 in South 9.0 mph 14.0 mph 36 % 0.00 in 577.00 W/m2
13:34 68.6 °F 39.1 °F 30.04 in SSW 6.0 mph 15.0 mph 34 % 0.00 in 519.00 W/m2
13:39 68.5 °F 41.2 °F 30.04 in SW 1.0 mph 8.0 mph 37 % 0.00 in 485.00 W/m2
13:44 68.2 °F 41.7 °F 30.04 in Calm   12.0 mph 38 % 0.00 in 469.00 W/m2
13:49 67.8 °F 40.6 °F 30.05 in Calm   9.0 mph 37 % 0.00 in 475.00 W/m2
13:54 67.6 °F 41.1 °F 30.04 in South 7.0 mph 9.0 mph 38 % 0.00 in 543.00 W/m2
13:59 67.3 °F 39.5 °F 30.04 in WSW 9.0 mph 13.0 mph 36 % 0.00 in 533.00 W/m2
14:04 67.0 °F 40.6 °F 30.05 in SW 4.0 mph 11.0 mph 38 % 0.00 in 606.00 W/m2
14:09 66.9 °F 41.2 °F 30.04 in South 5.0 mph 11.0 mph 39 % 0.00 in 480.00 W/m2
14:14 66.8 °F 41.7 °F 30.05 in Calm   14.0 mph 40 % 0.00 in 457.00 W/m2
14:19 66.8 °F 40.4 °F 30.04 in South 7.0 mph 14.0 mph 38 % 0.00 in 584.00 W/m2
14:24 66.8 °F 40.4 °F 30.04 in South 3.0 mph 11.0 mph 38 % 0.00 in 545.00 W/m2
14:29 66.7 °F 39.6 °F 30.04 in South 17.0 mph 17.0 mph 37 % 0.00 in 548.00 W/m2
14:34 66.7 °F 38.2 °F 30.04 in WSW 11.0 mph 16.0 mph 35 % 0.00 in 522.00 W/m2
14:39 66.6 °F 39.5 °F 30.04 in SSW 1.0 mph 9.0 mph 37 % 0.00 in 480.00 W/m2
14:44 66.6 °F 40.2 °F 30.04 in South 4.0 mph 16.0 mph 38 % 0.00 in 564.00 W/m2
14:50 66.5 °F 38.0 °F 30.04 in SSW 9.0 mph 13.0 mph 35 % 0.00 in 566.00 W/m2
14:54 66.5 °F 38.8 °F 30.03 in South 13.0 mph 15.0 mph 36 % 0.00 in 485.00 W/m2
15:00 66.5 °F 38.8 °F 30.03 in SSW 3.0 mph 14.0 mph 36 % 0.00 in 490.00 W/m2
15:05 66.5 °F 39.5 °F 30.03 in SSW 11.0 mph 18.0 mph 37 % 0.00 in 450.00 W/m2
15:10 66.5 °F 39.5 °F 30.03 in SSE 4.0 mph 14.0 mph 37 % 0.00 in 417.00 W/m2
15:11 66.4 °F 40.0 °F 30.03 in SSW 11.0 mph 11.0 mph 38 % 0.00 in 429.00 W/m2
15:16 66.3 °F 39.3 °F 30.03 in Calm   1.0 mph 37 % 0.00 in 476.00 W/m2
15:21 66.2 °F 39.9 °F 30.03 in Calm   1.0 mph 38 % 0.00 in 417.00 W/m2
15:26 66.1 °F 41.1 °F 30.03 in SSW 5.0 mph 9.0 mph 40 % 0.00 in 441.00 W/m2
15:31 66.1 °F 40.5 °F 30.03 in Calm   5.0 mph 39 % 0.00 in 492.00 W/m2
15:36 66.0 °F 41.7 °F 30.02 in WSW 11.0 mph 12.0 mph 41 % 0.00 in 434.00 W/m2
15:41 65.9 °F 40.9 °F 30.03 in South 6.0 mph 11.0 mph 40 % 0.00 in 520.00 W/m2
15:46 65.9 °F 39.6 °F 30.02 in Calm   1.0 mph 38 % 0.00 in 454.00 W/m2
15:51 65.9 °F 40.3 °F 30.02 in SW 15.0 mph 15.0 mph 39 % 0.00 in 404.00 W/m2
15:56 65.8 °F 39.5 °F 30.03 in SSW 9.0 mph 14.0 mph 38 % 0.00 in 330.00 W/m2
16:01 65.7 °F 38.7 °F 30.03 in SSE 13.0 mph 13.0 mph 37 % 0.00 in 353.00 W/m2
16:06 65.7 °F 39.4 °F 30.03 in Calm   1.0 mph 38 % 0.00 in 411.00 W/m2
16:11 65.6 °F 40.0 °F 30.03 in Calm     39 % 0.00 in 383.00 W/m2
16:16 65.4 °F 41.1 °F 30.03 in Calm     41 % 0.00 in 308.00 W/m2
16:21 65.2 °F 41.5 °F 30.03 in WSW 5.0 mph 9.0 mph 42 % 0.00 in 274.00 W/m2
16:26 65.0 °F 40.1 °F 30.03 in WSW 6.0 mph 10.0 mph 40 % 0.00 in 216.00 W/m2
16:31 64.8 °F 41.8 °F 30.02 in Calm   1.0 mph 43 % 0.00 in 214.00 W/m2
16:37 64.6 °F 42.8 °F 30.02 in WSW 4.0 mph 9.0 mph 45 % 0.00 in 211.00 W/m2
16:42 64.4 °F 42.6 °F 30.03 in Calm   2.0 mph 45 % 0.00 in 213.00 W/m2
16:47 64.2 °F 43.6 °F 30.02 in Calm     47 % 0.00 in 206.00 W/m2
16:52 64.0 °F 43.4 °F 30.02 in Calm   1.0 mph 47 % 0.00 in 209.00 W/m2
16:57 63.8 °F 43.8 °F 30.02 in Calm     48 % 0.00 in 195.00 W/m2
17:02 63.6 °F 44.6 °F 30.02 in Calm   6.0 mph 50 % 0.00 in 193.00 W/m2
17:07 63.5 °F 43.5 °F 30.02 in Calm     48 % 0.00 in 163.00 W/m2
17:12 63.4 °F 42.8 °F 30.02 in Calm     47 % 0.00 in 151.00 W/m2
17:17 63.2 °F 44.3 °F 30.02 in Calm     50 % 0.00 in 142.00 W/m2
17:22 63.0 °F 44.1 °F 30.02 in South 3.0 mph 5.0 mph 50 % 0.00 in 146.00 W/m2
17:27 62.9 °F 44.0 °F 30.02 in Calm   2.0 mph 50 % 0.00 in 134.00 W/m2
17:32 62.8 °F 43.9 °F 30.01 in SSW 4.0 mph 4.0 mph 50 % 0.00 in 116.00 W/m2
17:37 62.7 °F 44.3 °F 30.01 in Calm     51 % 0.00 in 111.00 W/m2
17:42 62.6 °F 44.8 °F 30.02 in Calm     52 % 0.00 in 125.00 W/m2
17:47 62.6 °F 44.8 °F 30.01 in Calm     52 % 0.00 in 123.00 W/m2
17:52 62.4 °F 44.6 °F 30.02 in Calm   8.0 mph 52 % 0.00 in 98.00 W/m2
17:58 62.2 °F 43.9 °F 30.01 in Calm     51 % 0.00 in 102.00 W/m2
18:03 62.0 °F 44.7 °F 30.01 in Calm   2.0 mph 53 % 0.00 in 91.00 W/m2
18:08 61.8 °F 44.5 °F 30.01 in Calm     53 % 0.00 in 88.00 W/m2
18:13 61.6 °F 44.3 °F 30.01 in Calm     53 % 0.00 in 84.00 W/m2
18:18 61.5 °F 45.7 °F 30.01 in Calm     56 % 0.00 in 83.00 W/m2
18:23 61.4 °F 45.1 °F 30.01 in Calm   3.0 mph 55 % 0.00 in 74.00 W/m2
18:28 61.2 °F 44.4 °F 30.01 in Calm     54 % 0.00 in 58.00 W/m2
18:33 61.0 °F 44.2 °F 30.01 in Calm     54 % 0.00 in 53.00 W/m2
18:38 60.8 °F 46.4 °F 30.00 in Calm     59 % 0.00 in 49.00 W/m2
18:43 60.6 °F 45.8 °F 30.00 in Calm     58 % 0.00 in 42.00 W/m2
18:48 60.4 °F 45.1 °F 30.00 in Calm     57 % 0.00 in 35.00 W/m2
18:53 60.2 °F 44.9 °F 30.00 in Calm     57 % 0.00 in 30.00 W/m2
18:58 60.0 °F 45.2 °F 30.00 in Calm     58 % 0.00 in 25.00 W/m2
19:03 59.9 °F 45.5 °F 29.99 in Calm     59 % 0.00 in 19.00 W/m2
19:08 59.7 °F 45.4 °F 29.99 in Calm     59 % 0.00 in 14.00 W/m2
19:13 59.5 °F 45.2 °F 29.99 in Calm     59 % 0.00 in 11.00 W/m2
19:18 59.2 °F 45.3 °F 29.99 in Calm     60 % 0.00 in 7.00 W/m2
19:23 58.9 °F 45.1 °F 29.99 in Calm   5.0 mph 60 % 0.00 in 5.00 W/m2
19:29 58.7 °F 45.3 °F 29.99 in Calm     61 % 0.00 in 0.00 W/m2
19:34 58.5 °F 46.0 °F 29.98 in Calm     63 % 0.00 in 0.00 W/m2
19:39 58.2 °F 45.3 °F 29.98 in SE 1.0 mph 6.0 mph 62 % 0.00 in 0.00 W/m2
19:44 58.0 °F 45.1 °F 29.98 in Calm   2.0 mph 62 % 0.00 in 0.00 W/m2
19:49 57.8 °F 45.3 °F 29.98 in Calm   5.0 mph 63 % 0.00 in 0.00 W/m2
19:54 57.7 °F 45.2 °F 29.98 in Calm     63 % 0.00 in 0.00 W/m2
19:59 57.4 °F 45.3 °F 29.98 in Calm     64 % 0.00 in 0.00 W/m2
20:04 57.1 °F 45.5 °F 29.98 in Calm     65 % 0.00 in 0.00 W/m2
20:09 56.9 °F 45.3 °F 29.98 in Calm     65 % 0.00 in 0.00 W/m2
20:14 56.7 °F 45.1 °F 29.98 in Calm     65 % 0.00 in 0.00 W/m2
20:19 56.6 °F 45.4 °F 29.99 in Calm     66 % 0.00 in 0.00 W/m2
20:24 56.5 °F 45.7 °F 29.98 in Calm     67 % 0.00 in 0.00 W/m2
20:29 56.3 °F 45.5 °F 29.99 in Calm     67 % 0.00 in 0.00 W/m2
20:34 56.2 °F 45.8 °F 29.99 in Calm     68 % 0.00 in 0.00 W/m2
20:39 56.0 °F 44.8 °F 29.99 in Calm     66 % 0.00 in 0.00 W/m2
20:44 55.9 °F 45.5 °F 29.99 in Calm     68 % 0.00 in 0.00 W/m2
20:49 55.8 °F 45.0 °F 29.99 in Calm     67 % 0.00 in 0.00 W/m2
20:54 55.7 °F 44.9 °F 29.99 in Calm     67 % 0.00 in 0.00 W/m2
20:59 55.7 °F 44.9 °F 29.99 in Calm     67 % 0.00 in 0.00 W/m2
21:04 55.7 °F 45.7 °F 29.99 in Calm     69 % 0.00 in 0.00 W/m2
21:09 55.6 °F 45.2 °F 29.99 in Calm     68 % 0.00 in 0.00 W/m2
21:14 55.6 °F 44.8 °F 29.99 in Calm     67 % 0.00 in 0.00 W/m2
21:19 55.5 °F 44.7 °F 30.00 in Calm     67 % 0.00 in 0.00 W/m2
21:24 55.5 °F 44.7 °F 30.00 in Calm     67 % 0.00 in 0.00 W/m2
21:29 55.5 °F 45.1 °F 30.00 in Calm     68 % 0.00 in 0.00 W/m2
21:34 55.4 °F 45.4 °F 29.99 in Calm     69 % 0.00 in 0.00 W/m2
21:39 55.3 °F 44.5 °F 29.99 in Calm     67 % 0.00 in 0.00 W/m2
21:41 55.3 °F 44.9 °F 29.99 in Calm     68 % 0.00 in 0.00 W/m2
21:46 55.3 °F 44.9 °F 30.00 in Calm     68 % 0.00 in 0.00 W/m2
21:51 55.2 °F 45.2 °F 29.99 in Calm     69 % 0.00 in 0.00 W/m2
21:56 55.2 °F 44.8 °F 29.99 in Calm     68 % 0.00 in 0.00 W/m2
22:01 55.1 °F 44.7 °F 29.99 in Calm     68 % 0.00 in 0.00 W/m2
22:06 55.1 °F 45.1 °F 29.99 in Calm     69 % 0.00 in 0.00 W/m2
22:11 55.1 °F 45.1 °F 29.99 in Calm     69 % 0.00 in 0.00 W/m2
22:16 55.1 °F 44.7 °F 29.99 in Calm     68 % 0.00 in 0.00 W/m2
22:21 55.1 °F 44.7 °F 29.99 in Calm     68 % 0.00 in 0.00 W/m2
22:26 55.1 °F 45.1 °F 29.99 in Calm     69 % 0.00 in 0.00 W/m2
22:31 55.0 °F 45.0 °F 29.99 in Calm   4.0 mph 69 % 0.00 in 0.00 W/m2
22:36 55.0 °F 44.7 °F 29.99 in Calm     68 % 0.00 in 0.00 W/m2
22:41 55.0 °F 44.7 °F 29.98 in SE 2.0 mph 4.0 mph 68 % 0.00 in 0.00 W/m2
22:42 55.0 °F 44.7 °F 29.98 in Calm   4.0 mph 68 % 0.00 in 0.00 W/m2
22:47 54.9 °F 44.5 °F 29.98 in ESE 4.0 mph 5.0 mph 68 % 0.00 in 0.00 W/m2
22:52 55.0 °F 45.0 °F 29.98 in Calm   7.0 mph 69 % 0.00 in 0.00 W/m2
22:57 55.0 °F 45.0 °F 29.98 in Calm   6.0 mph 69 % 0.00 in 0.00 W/m2
23:02 54.9 °F 44.9 °F 29.98 in Calm   4.0 mph 69 % 0.00 in 0.00 W/m2
23:07 54.9 °F 44.5 °F 29.98 in ESE 1.0 mph 5.0 mph 68 % 0.00 in 0.00 W/m2
23:13 54.9 °F 44.5 °F 29.98 in Calm   6.0 mph 68 % 0.00 in 0.00 W/m2
23:18 54.9 °F 44.2 °F 29.98 in East 1.0 mph 6.0 mph 67 % 0.00 in 0.00 W/m2
23:23 54.8 °F 44.1 °F 29.97 in Calm   11.0 mph 67 % 0.00 in 0.00 W/m2
23:28 54.8 °F 44.1 °F 29.97 in ESE 4.0 mph 6.0 mph 67 % 0.00 in 0.00 W/m2
23:33 54.8 °F 44.1 °F 29.97 in ESE 1.0 mph 11.0 mph 67 % 0.00 in 0.00 W/m2
23:38 54.8 °F 44.8 °F 29.97 in ESE 4.0 mph 5.0 mph 69 % 0.00 in 0.00 W/m2
23:43 54.8 °F 44.5 °F 29.97 in ESE 5.0 mph 6.0 mph 68 % 0.00 in 0.00 W/m2
23:48 54.7 °F 44.4 °F 29.97 in ESE 4.0 mph 5.0 mph 68 % 0.00 in 0.00 W/m2
23:53 54.6 °F 44.3 °F 29.97 in ESE 2.0 mph 6.0 mph 68 % 0.00 in 0.00 W/m2
Juneau County Weather
Compliments of Weather Underground - 4.5 mb
 WU-history PHP script courtesy of   Juneau County Weather.
powered by Cumulus v1.9.3 (1059)
Ambient Weather VWS v14.00
Top Contact Website Map Copyright © 2007 - 2018 Foresthillweather.com Never base important decisions on this or any weather information obtained from the Internet